Temp_Advection
nan nan nan nan nan nan nan nan nan nan nan nan nan nan nan nan nan nan nan nan nan nan nan nan nan nan nan nan nan nan nan nan nan
nan 0 -0 -0 -0 -1 -0 0 0 0 0 -0 -0 -0 -0 -0 -0 0 0 -0 0 0 0 0 0 -0 -0 -0 -0 -0 -0 -0 nan
nan 0 -0 -0 -0 -0 -0 -0 -0 -0 -0 -0 -0 -0 -0 -0 0 0 0 0 0 -0 0 0 -0 -0 -0 -0 -0 -0 -0 -0 nan
nan -0 -0 -0 -0 -0 -0 -0 -0 -0 -0 -0 -0 -0 -0 -0 -0 0 0 -0 0 0 -0 -0 -0 -0 -0 -0 -0 -0 -0 -0 nan
nan 0 -0 -0 -0 -0 -0 0 0 0 -0 -0 -0 -0 -0 -0 0 0 0 -0 0 -0 -0 -0 -0 -0 -0 -0 -0 -0 -0 -0 nan
nan 0 0 -0 -0 -0 -0 -0 0 0 0 -0 -0 -0 -0 -0 0 0 -0 -0 0 -0 -0 -0 -0 -0 -0 -0 -0 -0 -0 -0 nan
nan 0 0 0 0 -0 -0 -0 -0 0 0 0 -0 -0 -0 -0 0 0 -0 -0 -0 -0 -0 -0 -0 -0 -0 -0 -0 -0 -0 -0 nan
nan 0 1 0 0 1 0 0 0 0 0 0 0 -0 -0 -0 0 0 -0 -0 -0 -0 -0 -0 -0 -0 -0 -0 -0 -0 -0 -0 nan
nan 0 0 0 0 0 0 0 0 -0 0 0 0 0 0 -0 0 -0 -0 -0 -0 -0 -0 -0 -0 -0 -0 -0 -0 -0 -0 -0 nan
nan -0 -0 0 0 -0 -0 0 -0 0 -0 0 0 0 -0 -0 -0 -0 -0 -0 -0 -0 -0 -0 -0 -0 -0 -0 -0 -0 -0 -0 nan
nan -0 0 0 -0 -0 0 0 0 0 0 0 0 -0 -0 0 0 -0 -0 -0 0 -0 -0 -0 -0 -0 -0 -0 -0 -0 -0 -0 nan
nan 0 0 0 0 0 0 0 0 0 0 0 0 0 0 -0 -0 0 0 -0 -0 0 0 -0 -0 -0 -0 -0 -0 -0 -0 -0 nan
nan 0 0 0 0 0 0 0 0 0 -0 0 -0 -0 -0 -0 0 -0 -0 0 -0 -0 0 0 0 0 0 0 -0 -0 -0 -0 nan
nan 0 0 0 0 0 -0 -0 -0 -0 0 -0 -0 -0 -0 0 0 0 0 -0 0 0 -0 0 0 0 0 0 0 -0 -0 -0 nan
nan 0 0 0 0 -0 -0 -0 0 -0 -0 -0 -0 -0 0 0 0 0 0 0 -0 0 0 0 0 0 0 0 0 0 -0 -0 nan
nan 0 0 0 -0 -0 -0 0 -0 -0 0 -0 -0 -0 0 0 0 0 0 0 -0 0 0 0 0 0 -0 0 0 0 0 -0 nan
nan -0 0 -0 -1 0 0 -0 -0 -0 -0 0 0 -0 -0 -0 0 0 -0 -0 0 0 0 0 0 0 -0 -0 0 0 0 0 nan
nan 0 -0 -0 -0 -0 -0 -0 0 0 0 0 0 -0 -0 0 0 0 0 0 0 0 0 0 0 0 0 0 0 0 0 0 nan
nan 0 0 -0 -0 0 0 -0 -0 0 0 -0 -0 -0 0 0 0 0 0 0 0 0 0 0 0 0 0 0 0 0 0 0 nan
nan nan nan nan nan nan nan nan nan nan nan nan nan nan nan nan nan nan nan nan nan nan nan nan nan nan nan nan nan nan nan nan nan
Wind_Speed
15 17 18 20 20 20 20 19 18 18 20 21 22 22 23 16 13 12 7 9 8 9 8 8 7 6 5 5 5 6 7 7 8
15 18 19 19 20 21 19 18 18 18 19 20 18 19 19 13 13 10 10 11 10 9 10 9 9 8 7 7 7 7 7 8 9
15 17 18 18 19 19 18 18 18 18 19 17 15 14 17 12 12 11 12 11 11 11 11 11 10 10 10 10 10 10 10 10 10
14 16 17 17 18 18 17 17 18 17 16 14 14 13 15 12 13 9 11 12 12 12 12 12 12 12 11 11 11 10 10 11 12
13 14 16 16 16 16 16 16 15 15 14 14 13 15 16 10 9 8 10 11 11 11 11 12 12 11 11 10 10 10 10 11 12
12 13 14 15 15 14 14 13 12 11 11 11 10 13 7 7 6 8 8 9 9 10 11 11 11 10 10 9 9 9 10 10 11
13 15 14 14 13 13 12 11 10 9 7 8 8 7 6 6 5 6 7 8 9 9 9 9 9 9 8 8 8 8 9 9 9
14 15 15 14 13 12 11 10 9 6 5 2 3 5 4 3 3 3 4 6 7 7 7 7 7 7 6 6 6 6 6 7 8
13 11 9 8 9 7 7 5 5 8 6 5 4 3 3 4 3 3 3 4 4 5 5 5 5 5 5 5 4 4 5 6 7
12 12 11 10 9 9 8 7 8 7 6 7 7 6 3 3 2 5 4 5 5 5 5 5 4 5 5 4 4 4 5 5 6
16 14 17 13 11 10 9 8 8 8 8 8 7 6 6 5 5 4 7 6 7 7 7 7 6 5 5 5 5 5 5 5 6
15 14 14 13 12 11 10 9 9 7 9 9 8 8 7 6 7 6 4 9 8 8 9 9 8 8 9 8 6 6 6 6 7
14 13 13 13 12 12 11 10 9 9 9 7 8 9 10 9 7 9 7 8 9 10 10 10 11 10 9 10 12 9 8 8 9
14 14 13 13 13 13 12 10 10 10 11 10 12 11 10 9 9 9 9 10 11 10 13 12 12 13 11 10 10 13 14 12 11
15 13 14 14 14 13 14 14 13 11 10 10 11 11 10 10 10 10 10 11 13 11 13 15 13 13 13 12 11 10 15 18 15
17 15 15 16 15 14 13 12 13 14 13 11 10 12 13 13 13 12 11 12 12 11 7 10 12 13 11 11 11 12 12 16 19
17 16 15 17 16 16 16 16 15 15 15 12 8 6 8 12 12 12 10 8 10 10 11 12 12 11 14 14 14 16 16 15 17
18 19 18 17 17 18 17 18 18 16 17 16 12 4 7 8 11 11 12 12 13 15 15 14 16 15 17 19 19 17 17 18 18
17 20 19 18 18 18 19 20 20 19 20 20 21 20 14 8 7 12 14 15 16 18 19 19 18 19 20 21 17 18 17 19 19
17 17 19 17 20 20 21 22 22 25 25 25 25 23 23 26 24 16 16 18 18 19 20 19 19 20 24 20 19 18 18 18 18
Wind_Direction
109 116 120 122 123 120 115 111 110 112 112 113 111 98 90 87 80 68 72 71 58 56 55 59 59 54 48 37 23 14 7 6 9
115 121 124 122 120 118 119 122 117 115 118 118 111 102 97 89 83 85 79 71 65 62 62 66 68 67 61 54 44 38 32 33 38
122 125 124 121 119 120 125 122 120 118 119 119 111 104 90 85 84 78 74 70 67 65 64 64 64 64 64 62 59 56 56 57 55
127 128 126 125 124 122 126 125 126 124 121 115 107 101 104 95 90 76 72 70 66 62 60 58 57 57 58 59 58 57 57 56 57
133 137 136 136 131 129 128 129 129 126 121 116 109 92 76 78 78 79 74 70 63 58 57 56 54 55 56 56 52 53 52 50 49
145 149 147 146 141 139 136 131 128 129 126 119 113 90 96 95 95 72 70 67 62 56 52 50 52 53 53 50 48 49 47 45 43
167 158 161 158 157 153 147 141 135 127 127 127 111 95 106 105 109 69 60 57 53 48 46 46 46 49 51 49 48 45 42 38 39
182 172 170 171 169 171 168 162 150 137 159 161 152 139 140 123 125 48 39 41 42 42 40 38 37 38 42 44 44 39 34 26 24
183 176 168 177 171 188 169 173 188 183 187 198 189 171 167 151 144 312 345 354 8 15 18 22 25 24 28 29 22 13 10 13 11
189 176 182 183 182 198 193 192 207 199 207 209 208 212 200 206 209 272 309 311 322 331 342 343 351 5 14 9 360 343 343 349 349
187 185 205 183 195 196 202 200 204 211 210 222 226 227 229 221 231 222 289 295 298 305 312 317 321 325 333 338 343 340 339 335 337
192 190 196 194 201 201 203 207 205 215 222 221 225 230 227 247 246 260 248 292 284 284 291 300 306 309 315 315 319 330 334 336 340
198 194 200 199 202 202 211 214 224 222 235 233 234 229 234 233 244 262 263 255 274 283 280 284 294 298 303 306 303 309 314 331 334
204 204 205 206 210 212 214 219 221 230 232 232 231 243 246 250 245 248 259 264 264 270 282 283 285 288 292 292 273 292 309 317 321
210 213 212 212 214 216 223 224 232 220 233 241 245 252 256 253 258 269 271 260 272 270 270 289 287 280 278 278 276 270 284 300 305
225 220 223 222 218 225 229 231 227 235 232 235 254 261 261 262 267 269 261 260 274 276 278 280 280 280 275 269 267 265 260 273 285
236 228 227 228 228 230 232 232 236 236 240 239 240 253 261 267 262 251 256 246 261 252 272 269 268 253 259 268 261 260 261 260 267
242 233 232 235 239 239 242 244 243 246 247 242 232 229 240 219 257 249 255 263 255 258 272 276 262 258 263 271 279 268 263 266 263
245 243 240 244 250 250 250 250 252 247 245 254 243 236 235 234 265 253 262 260 265 266 270 275 276 272 275 274 269 272 265 270 266
243 251 245 256 253 260 256 261 259 253 255 253 267 263 253 251 250 255 255 270 276 278 282 273 274 274 285 272 274 271 269 265 266
Height
1552 1553 1554 1555 1557 1559 1560 1562 1564 1565 1567 1569 1570 1571 1573 1576 1576 1575 1574 1573 1573 1572 1572 1571 1571 1571 1571 1571 1570 1569 1569 1568 1568
1554 1556 1557 1558 1559 1562 1563 1565 1566 1568 1570 1571 1572 1574 1575 1577 1577 1576 1575 1575 1574 1574 1573 1573 1572 1572 1572 1571 1571 1571 1570 1570 1569
1557 1559 1560 1561 1562 1564 1566 1568 1569 1571 1572 1574 1575 1576 1576 1578 1578 1577 1577 1577 1576 1576 1576 1575 1574 1574 1573 1573 1572 1572 1572 1571 1570
1559 1561 1562 1564 1565 1567 1569 1570 1572 1573 1575 1576 1577 1578 1578 1579 1581 1580 1579 1579 1578 1578 1578 1577 1576 1575 1575 1575 1574 1574 1573 1573 1572
1561 1563 1564 1566 1568 1569 1571 1573 1575 1576 1576 1578 1579 1580 1581 1582 1581 1580 1580 1579 1579 1579 1579 1578 1578 1577 1577 1576 1576 1576 1575 1575 1574
1563 1564 1566 1568 1570 1571 1573 1575 1576 1578 1578 1579 1581 1581 1584 1584 1583 1581 1581 1581 1580 1580 1580 1580 1579 1578 1578 1578 1578 1577 1577 1577 1576
1564 1565 1567 1569 1571 1573 1575 1576 1577 1579 1580 1581 1582 1584 1585 1585 1584 1582 1582 1582 1582 1582 1581 1581 1580 1579 1579 1579 1579 1579 1578 1578 1577
1565 1566 1567 1569 1572 1574 1575 1577 1578 1582 1583 1583 1585 1586 1585 1585 1584 1583 1583 1583 1582 1582 1582 1581 1581 1581 1580 1580 1580 1579 1579 1579 1578
1565 1567 1569 1570 1573 1575 1577 1578 1580 1580 1582 1584 1585 1585 1585 1585 1585 1583 1583 1583 1583 1583 1582 1581 1581 1581 1581 1580 1580 1579 1579 1579 1579
1567 1569 1572 1573 1574 1577 1577 1579 1580 1580 1582 1583 1583 1583 1584 1584 1584 1583 1582 1583 1583 1582 1582 1582 1581 1581 1581 1580 1580 1580 1579 1579 1579
1566 1569 1569 1572 1574 1576 1577 1578 1579 1579 1581 1582 1582 1582 1582 1582 1582 1583 1581 1582 1582 1581 1581 1581 1581 1581 1580 1580 1579 1580 1579 1579 1579
1564 1566 1568 1570 1573 1575 1576 1577 1578 1579 1579 1580 1581 1581 1582 1581 1581 1581 1581 1580 1581 1580 1580 1580 1579 1579 1579 1579 1579 1578 1579 1579 1578
1562 1565 1566 1569 1570 1572 1573 1574 1575 1577 1578 1579 1579 1579 1580 1580 1580 1580 1580 1580 1579 1579 1579 1578 1578 1578 1578 1577 1576 1576 1577 1578 1578
1560 1562 1564 1566 1568 1569 1571 1573 1574 1576 1576 1576 1577 1577 1577 1577 1578 1578 1578 1578 1578 1577 1576 1577 1577 1577 1576 1577 1576 1575 1575 1576 1577
1558 1560 1562 1564 1566 1567 1568 1570 1571 1573 1574 1574 1574 1574 1575 1575 1575 1576 1576 1576 1575 1575 1575 1574 1575 1575 1575 1575 1575 1575 1573 1572 1574
1555 1558 1560 1561 1563 1565 1566 1568 1569 1570 1571 1572 1572 1572 1572 1572 1573 1573 1573 1573 1573 1573 1573 1572 1572 1572 1572 1572 1572 1572 1572 1571 1571
1553 1556 1558 1559 1560 1562 1563 1565 1567 1568 1569 1570 1571 1571 1571 1569 1569 1571 1571 1571 1570 1570 1570 1570 1570 1570 1570 1570 1569 1570 1570 1570 1569
1550 1553 1555 1557 1559 1560 1561 1563 1564 1566 1567 1567 1569 1569 1568 1568 1566 1567 1568 1568 1567 1567 1566 1566 1566 1566 1566 1566 1565 1565 1566 1566 1566
1545 1549 1553 1554 1556 1558 1559 1560 1562 1563 1563 1563 1564 1565 1565 1565 1566 1564 1564 1564 1563 1563 1562 1562 1562 1562 1562 1561 1560 1561 1561 1562 1562
1542 1545 1549 1550 1553 1553 1556 1557 1559 1560 1560 1561 1561 1560 1560 1560 1561 1560 1559 1559 1559 1558 1558 1557 1557 1557 1557 1556 1557 1556 1556 1557 1558